START_TIME,STEP,MOV.,M29,t_acc.,H22,t_acc.,H26,t_acc.,H30,t_acc.
1979-03-10 12:00:29.420 ,3,1,0.,24.0,0.,24.0,0.,24.0,0.,24.0
1979-03-10 12:00:53.420 ,7,1,0.,24.0,0.,24.0,0.,24.0,0.,24.0
1979-03-10 12:01:17.420 ,4,1,0.,24.0,0.,24.0,0.,24.0,0.,24.0
1979-03-10 12:01:41.420 ,0,1,0.,24.0,0.,24.0,0.,24.0,0.,24.0
1979-03-10 12:02:05.420 ,3,1,0.,24.0,0.,24.0,0.,24.0,0.,24.0
1979-03-10 12:02:29.420 ,7,1,0.,24.0,0.,24.0,0.,24.0,0.,24.0
1979-03-10 12:02:53.420 ,4,1,0.,24.0,0.,24.0,0.,24.0,0.,24.0
1979-03-10 12:03:17.420 ,0,1,0.,24.0,0.,24.0,0.,24.0,0.,24.0
1979-03-10 12:03:41.420 ,3,1,0.,24.0,0.,24.0,0.,24.0,0.,24.0
1979-03-10 12:04:05.420 ,7,1,0.,24.0,0.,24.0,0.,24.0,0.,24.0
1979-03-10 12:04:29.420 ,4,1,0.,24.0,0.,24.0,0.,24.0,0.,24.0
1979-03-10 12:04:53.420 ,0,1,0.,24.0,0.,24.0,0.,24.0,0.,24.0
1979-03-10 12:05:17.420 ,3,1,0.,24.0,0.,24.0,0.,24.0,0.,24.0
1979-03-10 12:05:41.420 ,7,1,0.,24.0,0.,24.0,0.,24.0,0.,24.0
1979-03-10 12:06:05.420 ,4,1,0.,24.0,0.,24.0,0.,24.0,0.,24.0
1979-03-10 12:06:29.420 ,0,1,0.,24.0,0.,24.0,0.,24.0,0.,24.0
1979-03-10 12:06:53.420 ,3,1,0.,24.0,0.,24.0,0.,24.0,0.,24.0
1979-03-10 12:07:17.420 ,7,1,0.,24.0,0.,24.0,0.,24.0,0.,24.0
1979-03-10 12:07:41.420 ,4,1,0.,24.0,0.,24.0,0.,24.0,0.,24.0
1979-03-10 12:08:05.420 ,0,1,0.,24.0,0.,24.0,0.,24.0,0.,24.0
1979-03-10 12:08:29.420 ,3,1,0.,24.0,0.,24.0,0.,24.0,0.,24.0
1979-03-10 12:08:53.420 ,7,1,0.,24.0,0.,24.0,0.,24.0,0.,24.0
1979-03-10 12:09:17.420 ,4,1,0.,24.0,0.,24.0,0.,24.0,0.,24.0
1979-03-10 12:09:41.420 ,0,1,0.,24.0,0.,24.0,0.,24.0,0.,24.0
1979-03-10 12:10:05.420 ,3,1,0.,24.0,0.,24.0,0.,24.0,0.,24.0
1979-03-10 12:10:29.420 ,7,1,0.,24.0,0.,24.0,0.,24.0,0.,24.0
1979-03-10 12:10:53.420 ,4,1,0.,24.0,0.,24.0,0.,24.0,0.,24.0
1979-03-10 12:11:17.420 ,0,1,0.,24.0,0.,24.0,0.,24.0,0.,24.0
1979-03-10 12:11:41.420 ,3,1,0.,24.0,0.,24.0,0.,24.0,0.,24.0
1979-03-10 12:12:05.420 ,7,1,0.,24.0,0.,24.0,0.,24.0,0.,24.0
1979-03-10 12:12:29.420 ,4,1,0.,24.0,0.,24.0,0.,24.0,0.,24.0
1979-03-10 12:12:53.420 ,0,1,0.,24.0,0.,24.0,0.,24.0,0.,24.0
1979-03-10 12:13:17.420 ,3,1,0.,24.0,0.,24.0,0.,24.0,0.,24.0
1979-03-10 12:13:41.420 ,7,1,0.,24.0,0.,24.0,0.,24.0,0.,24.0
1979-03-10 12:14:05.420 ,4,1,0.,24.0,0.,24.0,0.,24.0,0.,24.0
1979-03-10 12:14:29.420 ,0,1,0.,24.0,0.,24.0,0.,24.0,0.,24.0
1979-03-10 12:14:53.420 ,3,1,0.,24.0,0.,24.0,0.,24.0,0.,24.0
1979-03-10 12:15:17.420 ,7,1,0.,24.0,0.,24.0,0.,24.0,0.,24.0
1979-03-10 12:15:41.420 ,4,1,0.,24.0,0.,24.0,0.,24.0,0.,24.0
1979-03-10 12:16:05.420 ,0,1,0.,24.0,0.,24.0,0.,24.0,0.,24.0
1979-03-10 12:16:29.420 ,3,1,0.,24.0,0.,24.0,0.,24.0,0.,24.0
1979-03-10 12:16:53.420 ,7,1,0.,24.0,0.,24.0,0.,24.0,0.,24.0
1979-03-10 12:17:17.420 ,4,1,0.,24.0,0.,24.0,0.,24.0,0.,24.0
1979-03-10 12:17:41.420 ,0,1,0.,24.0,0.,24.0,0.,24.0,0.,24.0
1979-03-10 12:18:05.420 ,3,1,0.,24.0,0.,24.0,0.,24.0,0.,24.0
1979-03-10 12:18:29.420 ,7,1,0.,24.0,0.,24.0,0.,24.0,0.,24.0
1979-03-10 12:18:53.420 ,4,1,0.,24.0,0.,24.0,0.,24.0,0.,24.0
1979-03-10 12:19:17.420 ,0,1,0.,24.0,0.,24.0,0.,24.0,0.,24.0
1979-03-10 12:19:41.420 ,3,1,0.,24.0,0.,24.0,0.,24.0,0.,24.0
1979-03-10 12:20:05.420 ,7,1,0.,24.0,0.,24.0,0.,24.0,0.,24.0
1979-03-10 12:20:29.420 ,4,1,0.,24.0,0.,24.0,0.,24.0,0.,24.0
1979-03-10 12:20:53.420 ,0,1,0.,24.0,0.,24.0,0.,24.0,0.,24.0
1979-03-10 12:21:17.420 ,3,1,0.,24.0,0.,24.0,0.,24.0,0.,24.0
1979-03-10 12:21:41.420 ,7,1,0.,24.0,0.,24.0,0.,24.0,0.,24.0
1979-03-10 12:22:05.420 ,4,1,0.,24.0,0.,24.0,0.,24.0,0.,24.0
1979-03-10 12:22:29.420 ,0,1,0.,24.0,0.,24.0,0.,24.0,0.,24.0
1979-03-10 12:22:53.420 ,3,1,0.,24.0,0.,24.0,0.,24.0,0.,24.0
1979-03-10 12:23:17.420 ,7,1,0.,24.0,0.,24.0,0.,24.0,0.,24.0
1979-03-10 12:23:41.420 ,4,1,0.,24.0,0.,24.0,0.,24.0,0.,24.0
1979-03-10 12:24:05.420 ,0,0,0.,24.0,0.,24.0,0.,24.0,0.,24.0
1979-03-10 12:24:29.420 ,0,1,0.,24.0,0.,24.0,0.,24.0,0.,24.0
1979-03-10 12:24:53.420 ,1,1,0.,24.0,0.,24.0,0.,24.0,0.,24.0
1979-03-10 12:25:17.420 ,2,1,0.,24.0,0.,24.0,0.,24.0,0.,24.0
1979-03-10 12:25:41.420 ,3,1,0.,24.0,0.,24.0,0.,24.0,0.,24.0
1979-03-10 12:26:05.420 ,4,1,0.,24.0,0.,24.0,0.,24.0,0.,24.0
1979-03-10 12:26:29.420 ,5,1,0.,24.0,0.,24.0,0.,24.0,0.,24.0
1979-03-10 12:26:53.420 ,6,1,0.,24.0,0.,24.0,0.,24.0,0.,24.0
1979-03-10 12:27:17.420 ,7,1,0.,24.0,0.,24.0,0.,24.0,0.,24.0
1979-03-10 12:27:41.420 ,7,1,0.,24.0,0.,24.0,0.,24.0,0.,24.0
1979-03-10 12:28:05.420 ,6,1,0.,24.0,0.,24.0,0.,24.0,0.,24.0
1979-03-10 12:28:29.420 ,5,1,0.,24.0,0.,24.0,0.,24.0,0.,24.0
1979-03-10 12:28:53.420 ,4,1,0.,24.0,0.,24.0,0.,24.0,0.,24.0
1979-03-10 12:29:17.420 ,3,1,0.,24.0,0.,24.0,0.,24.0,0.,24.0
1979-03-10 12:29:41.420 ,2,1,0.,24.0,0.,24.0,0.,24.0,0.,24.0
1979-03-10 12:30:05.420 ,1,1,0.,24.0,0.,24.0,0.,24.0,0.,24.0
1979-03-10 12:30:29.420 ,0,1,0.,24.0,0.,24.0,0.,24.0,0.,24.0
1979-03-10 12:30:53.420 ,0,1,0.,24.0,0.,24.0,0.,24.0,0.,24.0
1979-03-10 12:31:17.420 ,1,1,0.,24.0,0.,24.0,0.,24.0,0.,24.0
1979-03-10 12:31:41.420 ,2,1,0.,24.0,0.,24.0,0.,24.0,0.,24.0
1979-03-10 12:32:05.420 ,3,1,0.,24.0,0.,24.0,0.,24.0,0.,24.0
1979-03-10 12:32:29.420 ,4,1,0.,24.0,0.,24.0,0.,24.0,0.,24.0
1979-03-10 12:32:53.420 ,5,1,0.,24.0,0.,24.0,0.,24.0,0.,24.0
1979-03-10 12:33:17.420 ,6,1,0.,24.0,0.,24.0,0.,24.0,0.,24.0
1979-03-10 12:33:41.420 ,7,1,0.,24.0,0.,24.0,0.,24.0,0.,24.0
1979-03-10 12:34:05.420 ,7,1,0.,24.0,0.,24.0,0.,24.0,0.,24.0
1979-03-10 12:34:29.420 ,6,1,0.,24.0,0.,24.0,0.,24.0,0.,24.0
1979-03-10 12:34:53.420 ,5,1,0.,24.0,0.,24.0,0.,24.0,0.,24.0
1979-03-10 12:35:17.420 ,4,1,0.,24.0,0.,24.0,0.,24.0,0.,24.0
1979-03-10 12:35:41.420 ,3,1,0.,24.0,0.,24.0,0.,24.0,0.,24.0
1979-03-10 12:36:05.420 ,2,1,0.,24.0,0.,24.0,0.,24.0,0.,24.0
1979-03-10 12:36:29.420 ,1,1,0.,24.0,0.,24.0,0.,24.0,0.,24.0
1979-03-10 12:36:53.420 ,0,1,0.,24.0,0.,24.0,0.,24.0,0.,24.0
1979-03-10 12:37:17.420 ,0,1,0.,24.0,0.,24.0,0.,24.0,0.,24.0
1979-03-10 12:37:41.420 ,1,1,0.,24.0,0.,24.0,0.,24.0,0.,24.0
1979-03-10 12:38:05.420 ,2,1,0.,24.0,0.,24.0,0.,24.0,0.,24.0
1979-03-10 12:38:29.420 ,3,1,0.,24.0,0.,24.0,0.,24.0,0.,24.0
1979-03-10 12:38:53.420 ,4,1,0.,24.0,0.,24.0,0.,24.0,0.,24.0
1979-03-10 12:39:17.420 ,5,1,0.,24.0,0.,24.0,0.,24.0,0.,24.0
1979-03-10 12:39:41.420 ,6,1,0.,24.0,0.,24.0,0.,24.0,0.,24.0
1979-03-10 12:40:05.420 ,7,1,0.,24.0,0.,24.0,0.,24.0,0.,24.0
1979-03-10 12:40:29.420 ,7,1,0.,24.0,0.,24.0,0.,24.0,0.,24.0
1979-03-10 12:40:53.420 ,6,1,0.,24.0,0.,24.0,0.,24.0,0.,24.0
1979-03-10 12:41:17.420 ,5,1,0.,24.0,0.,24.0,0.,24.0,0.,24.0
1979-03-10 12:41:41.420 ,4,1,0.,24.0,0.,24.0,0.,24.0,0.,24.0
1979-03-10 12:42:05.420 ,3,1,0.,24.0,0.,24.0,0.,24.0,0.,24.0
1979-03-10 12:42:29.420 ,2,1,0.,24.0,0.,24.0,0.,24.0,0.,24.0
1979-03-10 12:42:53.420 ,1,1,0.,24.0,0.,24.0,0.,24.0,0.,24.0
1979-03-10 12:43:17.420 ,0,1,0.,24.0,0.,24.0,0.,24.0,0.,24.0
1979-03-10 12:43:41.420 ,0,1,0.,24.0,0.,24.0,0.,24.0,0.,24.0
1979-03-10 12:44:05.420 ,1,1,0.,24.0,0.,24.0,0.,24.0,0.,24.0
1979-03-10 12:44:29.420 ,2,1,0.,24.0,0.,24.0,0.,24.0,0.,24.0
1979-03-10 12:44:53.420 ,3,1,0.,24.0,0.,24.0,0.,24.0,0.,24.0
1979-03-10 12:45:17.420 ,4,1,0.,24.0,0.,24.0,0.,24.0,0.,24.0
1979-03-10 12:45:41.420 ,5,1,0.,24.0,0.,24.0,0.,24.0,0.,24.0
1979-03-10 12:46:05.420 ,6,1,0.,24.0,0.,24.0,0.,24.0,0.,24.0
1979-03-10 12:46:29.420 ,7,1,0.,24.0,0.,24.0,0.,24.0,0.,24.0
1979-03-10 12:46:53.420 ,7,1,0.,24.0,0.,24.0,0.,24.0,0.,24.0
1979-03-10 12:47:17.420 ,6,1,0.,24.0,0.,24.0,0.,24.0,0.,24.0
1979-03-10 12:47:41.420 ,5,1,0.,24.0,0.,24.0,0.,24.0,0.,24.0
1979-03-10 12:48:05.420 ,4,1,0.,24.0,0.,24.0,0.,24.0,0.,24.0
1979-03-10 12:48:29.420 ,3,1,0.,24.0,0.,24.0,0.,24.0,0.,24.0
1979-03-10 12:48:53.420 ,2,1,0.,24.0,0.,24.0,0.,24.0,0.,24.0
1979-03-10 12:49:17.420 ,1,1,0.,24.0,0.,24.0,0.,24.0,0.,24.0
1979-03-10 12:49:41.420 ,0,1,0.,24.0,0.,24.0,0.,24.0,0.,24.0
1979-03-10 12:50:05.420 ,0,1,0.,24.0,0.,24.0,0.,24.0,0.,24.0
1979-03-10 12:50:29.420 ,1,1,0.,24.0,0.,24.0,0.,24.0,0.,24.0
1979-03-10 12:50:53.420 ,2,1,0.,24.0,0.,24.0,0.,24.0,0.,24.0
1979-03-10 12:51:17.420 ,3,1,0.,24.0,0.,24.0,0.,24.0,0.,24.0
1979-03-10 12:51:41.420 ,4,1,0.,24.0,0.,24.0,0.,24.0,0.,24.0
1979-03-10 12:52:05.420 ,5,1,0.,24.0,0.,24.0,0.,24.0,0.,24.0
1979-03-10 12:52:29.420 ,6,1,0.,24.0,0.,24.0,0.,24.0,0.,24.0
1979-03-10 12:52:53.420 ,7,1,0.,24.0,0.,24.0,0.,24.0,0.,24.0
1979-03-10 12:53:17.420 ,7,1,0.,24.0,0.,24.0,0.,24.0,0.,24.0
1979-03-10 12:53:41.420 ,6,1,0.,24.0,0.,24.0,0.,24.0,0.,24.0
1979-03-10 12:54:05.420 ,5,1,0.,24.0,0.,24.0,0.,24.0,0.,24.0
1979-03-10 12:54:29.420 ,4,1,0.,24.0,0.,24.0,0.,24.0,0.,24.0
1979-03-10 12:54:53.420 ,3,1,0.,24.0,0.,24.0,0.,24.0,0.,24.0
1979-03-10 12:55:17.420 ,2,1,0.,24.0,0.,24.0,0.,24.0,0.,24.0
1979-03-10 12:55:41.420 ,1,1,0.,24.0,0.,24.0,0.,24.0,0.,24.0
1979-03-10 12:56:05.420 ,0,1,0.,24.0,0.,24.0,0.,24.0,0.,24.0
1979-03-10 12:56:29.420 ,0,1,0.,24.0,0.,24.0,0.,24.0,0.,24.0
1979-03-10 12:56:53.420 ,1,1,0.,24.0,0.,24.0,0.,24.0,0.,24.0
1979-03-10 12:57:17.420 ,2,1,0.,24.0,0.,24.0,0.,24.0,0.,24.0
1979-03-10 12:57:41.420 ,3,1,0.,24.0,0.,24.0,0.,24.0,0.,24.0
1979-03-10 12:58:05.420 ,4,1,0.,24.0,0.,24.0,0.,24.0,0.,24.0
1979-03-10 12:58:29.420 ,5,1,0.,24.0,0.,24.0,0.,24.0,0.,24.0
1979-03-10 12:58:53.420 ,6,1,0.,24.0,0.,24.0,0.,24.0,0.,24.0
1979-03-10 12:59:17.420 ,7,1,0.,24.0,0.,24.0,0.,24.0,0.,24.0
1979-03-10 12:59:41.420 ,7,1,0.,24.0,0.,24.0,0.,24.0,0.,24.0
1979-03-10 13:00:05.420 ,6,1,0.,24.0,0.,24.0,0.,24.0,0.,24.0
1979-03-10 13:00:29.420 ,5,1,0.,24.0,0.,24.0,0.,24.0,0.,24.0
1979-03-10 13:00:53.420 ,4,1,0.,24.0,0.,24.0,0.,24.0,0.,24.0
1979-03-10 13:01:17.420 ,3,1,0.,24.0,0.,24.0,0.,24.0,0.,24.0
1979-03-10 13:01:41.420 ,2,1,0.,24.0,0.,24.0,0.,24.0,0.,24.0
1979-03-10 13:02:05.420 ,1,1,0.,24.0,0.,24.0,0.,24.0,0.,24.0
1979-03-10 13:02:29.420 ,0,1,0.,24.0,0.,24.0,0.,24.0,0.,24.0
1979-03-10 13:02:53.420 ,0,1,0.,24.0,0.,24.0,0.,24.0,0.,24.0
1979-03-10 13:03:17.420 ,1,1,0.,24.0,0.,24.0,0.,24.0,0.,24.0
1979-03-10 13:03:41.420 ,2,1,0.,24.0,0.,24.0,0.,24.0,0.,24.0
1979-03-10 13:04:05.420 ,3,1,0.,24.0,0.,24.0,0.,24.0,0.,24.0
1979-03-10 13:04:29.420 ,4,1,0.,24.0,0.,24.0,0.,24.0,0.,24.0
1979-03-10 13:04:53.420 ,5,1,0.,24.0,0.,24.0,0.,24.0,0.,24.0
1979-03-10 13:05:17.420 ,6,1,0.,24.0,0.,24.0,0.,24.0,0.,24.0
1979-03-10 13:05:41.420 ,7,1,0.,24.0,0.,24.0,0.,24.0,0.,24.0
1979-03-10 13:06:05.420 ,7,1,0.,24.0,0.,24.0,0.,24.0,0.,24.0
1979-03-10 13:06:29.420 ,6,1,0.,24.0,0.,24.0,0.,24.0,0.,24.0
1979-03-10 13:06:53.420 ,5,1,0.,24.0,0.,24.0,0.,24.0,0.,24.0
1979-03-10 13:07:17.420 ,4,1,0.,24.0,0.,24.0,0.,24.0,0.,24.0
1979-03-10 13:07:41.420 ,3,1,0.,24.0,0.,24.0,0.,24.0,0.,24.0
1979-03-10 13:08:05.420 ,2,1,0.,24.0,0.,24.0,0.,24.0,0.,24.0
1979-03-10 13:08:29.420 ,1,1,0.,24.0,0.,24.0,0.,24.0,0.,24.0
1979-03-10 13:08:53.420 ,0,1,0.,24.0,0.,24.0,0.,24.0,0.,24.0
1979-03-10 13:09:17.420 ,0,1,0.,24.0,0.,24.0,0.,24.0,0.,24.0
1979-03-10 13:09:41.420 ,1,1,0.,24.0,0.,24.0,0.,24.0,0.,24.0
1979-03-10 13:10:05.420 ,2,1,0.,24.0,0.,24.0,0.,24.0,0.,24.0
1979-03-10 13:10:29.420 ,3,1,0.,24.0,0.,24.0,0.,24.0,0.,24.0
1979-03-10 13:10:53.420 ,4,1,0.,24.0,0.,24.0,0.,24.0,0.,24.0
1979-03-10 13:11:17.420 ,5,1,0.,24.0,0.,24.0,0.,24.0,0.,24.0
1979-03-10 13:11:41.420 ,6,1,0.,24.0,0.,24.0,0.,24.0,0.,24.0
1979-03-10 13:12:05.420 ,7,1,0.,24.0,0.,24.0,0.,24.0,0.,24.0
1979-03-10 13:12:29.420 ,7,1,0.,24.0,0.,24.0,0.,24.0,0.,24.0
1979-03-10 13:12:53.420 ,6,1,0.,24.0,0.,24.0,0.,24.0,0.,24.0
1979-03-10 13:13:17.420 ,5,1,0.,24.0,0.,24.0,0.,24.0,0.,24.0
1979-03-10 13:13:41.420 ,4,1,0.,24.0,0.,24.0,0.,24.0,0.,24.0
1979-03-10 13:14:05.420 ,3,1,0.,24.0,0.,24.0,0.,24.0,0.,24.0
1979-03-10 13:14:29.420 ,2,1,0.,24.0,0.,24.0,0.,24.0,0.,24.0
1979-03-10 13:14:53.420 ,1,1,0.,24.0,0.,24.0,0.,24.0,0.,24.0
1979-03-10 13:15:17.420 ,0,1,0.,24.0,0.,24.0,0.,24.0,0.,24.0
1979-03-10 13:15:41.420 ,0,1,0.,24.0,0.,24.0,0.,24.0,0.,24.0
1979-03-10 13:16:05.420 ,1,1,0.,24.0,0.,24.0,0.,24.0,0.,24.0
1979-03-10 13:16:29.420 ,2,1,0.,24.0,0.,24.0,0.,24.0,0.,24.0
1979-03-10 13:16:53.420 ,3,1,0.,24.0,0.,24.0,0.,24.0,0.,24.0
1979-03-10 13:17:17.420 ,4,1,0.,24.0,0.,24.0,0.,24.0,0.,24.0
1979-03-10 13:17:41.420 ,5,1,0.,24.0,0.,24.0,0.,24.0,0.,24.0
1979-03-10 13:18:05.420 ,6,1,0.,24.0,0.,24.0,0.,24.0,0.,24.0
1979-03-10 13:18:29.420 ,7,1,0.,24.0,0.,24.0,0.,24.0,0.,24.0
1979-03-10 13:18:53.420 ,7,1,0.,24.0,0.,24.0,0.,24.0,0.,24.0
1979-03-10 13:19:17.420 ,6,1,0.,24.0,0.,24.0,0.,24.0,0.,24.0
1979-03-10 13:19:41.420 ,5,1,0.,24.0,0.,24.0,0.,24.0,0.,24.0
1979-03-10 13:20:05.420 ,4,1,0.,24.0,0.,24.0,0.,24.0,0.,24.0
1979-03-10 13:20:29.420 ,3,1,0.,24.0,0.,24.0,0.,24.0,0.,24.0
1979-03-10 13:20:53.420 ,2,1,0.,24.0,0.,24.0,0.,24.0,0.,24.0
1979-03-10 13:21:17.420 ,1,1,0.,24.0,0.,24.0,0.,24.0,0.,24.0
1979-03-10 13:21:41.420 ,0,1,0.,24.0,0.,24.0,0.,24.0,0.,24.0
1979-03-10 13:22:05.420 ,0,1,0.,24.0,0.,24.0,0.,24.0,0.,24.0
1979-03-10 13:22:29.420 ,1,1,0.,24.0,0.,24.0,0.,24.0,0.,24.0
1979-03-10 13:22:53.420 ,2,1,0.,24.0,0.,24.0,0.,24.0,0.,24.0
1979-03-10 13:23:17.420 ,3,1,0.,24.0,0.,24.0,0.,24.0,0.,24.0
1979-03-10 13:23:41.420 ,4,1,0.,24.0,0.,24.0,0.,24.0,0.,24.0
1979-03-10 13:24:05.420 ,5,1,0.,24.0,0.,24.0,0.,24.0,0.,24.0
1979-03-10 13:24:29.420 ,6,1,0.,24.0,0.,24.0,0.,24.0,0.,24.0
1979-03-10 13:24:53.420 ,7,1,0.,24.0,0.,24.0,0.,24.0,0.,24.0
1979-03-10 13:25:17.420 ,7,1,0.,24.0,0.,24.0,0.,24.0,0.,24.0
1979-03-10 13:25:41.420 ,6,1,0.,24.0,0.,24.0,0.,24.0,0.,24.0
1979-03-10 13:26:05.420 ,5,1,0.,24.0,0.,24.0,0.,24.0,0.,24.0
1979-03-10 13:26:29.420 ,4,1,0.,24.0,0.,24.0,0.,24.0,0.,24.0
1979-03-10 13:26:53.420 ,3,1,0.,24.0,0.,24.0,0.,24.0,0.,24.0
1979-03-10 13:27:17.420 ,2,1,0.,24.0,0.,24.0,0.,24.0,0.,24.0
1979-03-10 13:27:41.420 ,1,1,0.,24.0,0.,24.0,0.,24.0,0.,24.0
1979-03-10 13:28:05.420 ,0,1,0.,24.0,0.,24.0,0.,24.0,0.,24.0
1979-03-10 13:28:29.420 ,0,1,0.,24.0,0.,24.0,0.,24.0,0.,24.0
1979-03-10 13:28:53.420 ,1,1,0.,24.0,0.,24.0,0.,24.0,0.,24.0
1979-03-10 13:29:17.420 ,2,1,0.,24.0,0.,24.0,0.,24.0,0.,24.0
1979-03-10 13:29:41.420 ,3,1,0.,24.0,0.,24.0,0.,24.0,0.,24.0
1979-03-10 13:30:05.420 ,4,1,0.,24.0,0.,24.0,0.,24.0,0.,24.0
1979-03-10 13:30:29.420 ,5,1,0.,24.0,0.,24.0,0.,24.0,0.,24.0
1979-03-10 13:30:53.420 ,6,1,0.,24.0,0.,24.0,0.,24.0,0.,24.0
1979-03-10 13:31:17.420 ,7,1,0.,24.0,0.,24.0,0.,24.0,0.,24.0
1979-03-10 13:31:41.420 ,7,1,0.,24.0,0.,24.0,0.,24.0,0.,24.0
1979-03-10 13:32:05.420 ,6,1,0.,24.0,0.,24.0,0.,24.0,0.,24.0
1979-03-10 13:32:29.420 ,5,1,0.,24.0,0.,24.0,0.,24.0,0.,24.0
1979-03-10 13:32:53.420 ,4,1,0.,24.0,0.,24.0,0.,24.0,0.,24.0
1979-03-10 13:33:17.420 ,3,1,0.,24.0,0.,24.0,0.,24.0,0.,24.0
1979-03-10 13:33:41.420 ,2,1,0.,24.0,0.,24.0,0.,24.0,0.,24.0
1979-03-10 13:34:05.420 ,1,1,0.,24.0,0.,24.0,0.,24.0,0.,24.0
1979-03-10 13:34:29.420 ,0,1,0.,24.0,0.,24.0,0.,24.0,0.,24.0
1979-03-10 13:34:53.420 ,0,1,0.,24.0,0.,24.0,0.,24.0,0.,24.0
1979-03-10 13:35:17.420 ,1,1,0.,24.0,0.,24.0,0.,24.0,0.,24.0
1979-03-10 13:35:41.420 ,2,1,0.,24.0,0.,24.0,0.,24.0,0.,24.0
1979-03-10 13:36:05.420 ,3,1,0.,24.0,0.,24.0,0.,24.0,0.,24.0
1979-03-10 13:36:29.420 ,4,1,0.,24.0,0.,24.0,0.,24.0,0.,24.0
1979-03-10 13:36:53.420 ,5,1,0.,24.0,0.,24.0,0.,24.0,0.,24.0
1979-03-10 13:37:17.420 ,6,1,0.,24.0,0.,24.0,0.,24.0,0.,24.0
1979-03-10 13:37:41.420 ,7,1,0.,24.0,0.,24.0,0.,24.0,0.,24.0
1979-03-10 13:38:05.420 ,7,1,0.,24.0,0.,24.0,0.,24.0,0.,24.0
1979-03-10 13:38:29.420 ,6,1,0.,24.0,0.,24.0,0.,24.0,0.,24.0
1979-03-10 13:38:53.420 ,5,1,0.,24.0,0.,24.0,0.,24.0,0.,24.0
1979-03-10 13:39:17.420 ,4,1,0.,24.0,0.,24.0,0.,24.0,0.,24.0
1979-03-10 13:39:41.420 ,3,1,0.,24.0,0.,24.0,0.,24.0,0.,24.0
1979-03-10 13:40:05.420 ,2,1,0.,24.0,0.,24.0,0.,24.0,0.,24.0
1979-03-10 13:40:29.420 ,1,1,0.,24.0,0.,24.0,0.,24.0,0.,24.0
1979-03-10 13:40:53.420 ,0,1,0.,24.0,0.,24.0,0.,24.0,0.,24.0
1979-03-10 13:41:17.420 ,0,1,0.,24.0,0.,24.0,0.,24.0,0.,24.0
1979-03-10 13:41:41.420 ,1,1,0.,24.0,0.,24.0,0.,24.0,0.,24.0
1979-03-10 13:42:05.420 ,2,1,0.,24.0,0.,24.0,0.,24.0,0.,24.0
1979-03-10 13:42:29.420 ,3,1,0.,24.0,0.,24.0,0.,24.0,0.,24.0
1979-03-10 13:42:53.420 ,4,1,0.,24.0,0.,24.0,0.,24.0,0.,24.0
1979-03-10 13:43:17.420 ,5,1,0.,24.0,0.,24.0,0.,24.0,0.,24.0
1979-03-10 13:43:41.420 ,6,1,0.,24.0,0.,24.0,0.,24.0,0.,24.0
1979-03-10 13:44:05.420 ,7,1,0.,24.0,0.,24.0,0.,24.0,0.,24.0
1979-03-10 13:44:29.420 ,7,1,0.,24.0,0.,24.0,0.,24.0,0.,24.0
1979-03-10 13:44:53.420 ,6,1,0.,24.0,0.,24.0,0.,24.0,0.,24.0
1979-03-10 13:45:17.420 ,5,1,0.,24.0,0.,24.0,0.,24.0,0.,24.0
1979-03-10 13:45:41.420 ,4,1,0.,24.0,0.,24.0,0.,24.0,0.,24.0
1979-03-10 13:46:05.420 ,3,1,0.,24.0,0.,24.0,0.,24.0,0.,24.0
1979-03-10 13:46:29.420 ,2,1,0.,24.0,0.,24.0,0.,24.0,0.,24.0
1979-03-10 13:46:53.420 ,1,1,0.,24.0,0.,24.0,0.,24.0,0.,24.0
1979-03-10 13:47:17.420 ,0,1,0.,24.0,0.,24.0,0.,24.0,0.,24.0
1979-03-10 13:47:41.420 ,0,1,0.,24.0,0.,24.0,0.,24.0,0.,24.0
1979-03-10 13:48:05.420 ,1,1,0.,24.0,0.,24.0,0.,24.0,0.,24.0
1979-03-10 13:48:29.420 ,2,1,0.,24.0,0.,24.0,0.,24.0,0.,24.0
1979-03-10 13:48:53.420 ,3,1,0.,24.0,0.,24.0,0.,24.0,0.,24.0
1979-03-10 13:49:17.420 ,4,1,0.,24.0,0.,24.0,0.,24.0,0.,24.0
1979-03-10 13:49:41.420 ,5,1,0.,24.0,0.,24.0,0.,24.0,0.,24.0
1979-03-10 13:50:05.420 ,6,1,0.,24.0,0.,24.0,0.,24.0,0.,24.0
1979-03-10 13:50:29.420 ,7,1,0.,24.0,0.,24.0,0.,24.0,0.,24.0
1979-03-10 13:50:53.420 ,7,1,0.,24.0,0.,24.0,0.,24.0,0.,24.0
1979-03-10 13:51:17.420 ,6,1,0.,24.0,0.,24.0,0.,24.0,0.,24.0
1979-03-10 13:51:41.420 ,5,1,0.,24.0,0.,24.0,0.,24.0,0.,24.0
1979-03-10 13:52:05.420 ,4,1,0.,24.0,0.,24.0,0.,24.0,0.,24.0
1979-03-10 13:52:29.420 ,3,1,0.,24.0,0.,24.0,0.,24.0,0.,24.0
1979-03-10 13:52:53.420 ,2,1,0.,24.0,0.,24.0,0.,24.0,0.,24.0
1979-03-10 13:53:17.420 ,1,1,0.,24.0,0.,24.0,0.,24.0,0.,24.0
1979-03-10 13:53:41.420 ,0,1,0.,24.0,0.,24.0,0.,24.0,0.,24.0
1979-03-10 13:54:05.420 ,0,1,0.,24.0,0.,24.0,0.,24.0,0.,24.0
1979-03-10 13:54:29.420 ,1,1,0.,24.0,0.,24.0,0.,24.0,0.,24.0
1979-03-10 13:54:53.420 ,2,1,0.,24.0,0.,24.0,0.,24.0,0.,24.0
1979-03-10 13:55:17.420 ,3,1,0.,24.0,0.,24.0,0.,24.0,0.,24.0
1979-03-10 13:55:41.420 ,4,1,0.,24.0,0.,24.0,0.,24.0,0.,24.0
1979-03-10 13:56:05.420 ,5,1,0.,24.0,0.,24.0,0.,24.0,0.,24.0
1979-03-10 13:56:29.420 ,6,1,0.,24.0,0.,24.0,0.,24.0,0.,24.0
1979-03-10 13:56:53.420 ,7,1,0.,24.0,0.,24.0,0.,24.0,0.,24.0
1979-03-10 13:57:17.420 ,7,1,0.,24.0,0.,24.0,0.,24.0,0.,24.0
1979-03-10 13:57:41.420 ,6,1,0.,24.0,0.,24.0,0.,24.0,0.,24.0
1979-03-10 13:58:05.420 ,5,1,0.,24.0,0.,24.0,0.,24.0,0.,24.0
1979-03-10 13:58:29.420 ,4,1,0.,24.0,0.,24.0,0.,24.0,0.,24.0
1979-03-10 13:58:53.420 ,3,1,0.,24.0,0.,24.0,0.,24.0,0.,24.0
1979-03-10 13:59:17.420 ,2,1,0.,24.0,0.,24.0,0.,24.0,0.,24.0
1979-03-10 13:59:41.420 ,1,1,0.,24.0,0.,24.0,0.,24.0,0.,24.0
1979-03-10 14:00:05.420 ,0,1,0.,24.0,0.,24.0,0.,24.0,0.,24.0
1979-03-10 14:00:29.420 ,0,1,0.,24.0,0.,24.0,0.,24.0,0.,24.0
1979-03-10 14:00:53.420 ,1,1,0.,24.0,0.,24.0,0.,24.0,0.,24.0
1979-03-10 14:01:17.420 ,2,1,0.,24.0,0.,24.0,0.,24.0,0.,24.0
1979-03-10 14:01:41.420 ,3,1,0.,24.0,0.,24.0,0.,24.0,0.,24.0
1979-03-10 14:02:05.420 ,4,1,0.,24.0,0.,24.0,0.,24.0,0.,24.0
1979-03-10 14:02:29.420 ,5,1,0.,24.0,0.,24.0,0.,24.0,0.,24.0
1979-03-10 14:02:53.420 ,6,1,0.,24.0,0.,24.0,0.,24.0,0.,24.0
1979-03-10 14:03:17.420 ,7,1,0.,24.0,0.,24.0,0.,24.0,0.,24.0
1979-03-10 14:03:41.420 ,7,1,0.,24.0,0.,24.0,0.,24.0,0.,24.0
1979-03-10 14:04:05.420 ,0,0,0.,24.0,0.,24.0,0.,24.0,0.,24.0
1979-03-10 14:04:29.420 ,0,0,,0,,0,,0,,0
1979-03-10 14:05:14.420 ,0,0,,0,,0,,0,,0
1979-03-10 14:05:17.420 ,3,1,0.,24.0,0.,24.0,0.,24.0,0.,24.0
1979-03-10 14:05:41.420 ,2,1,0.,24.0,0.,24.0,0.,24.0,0.,24.0
1979-03-10 14:06:05.420 ,1,1,0.,24.0,0.,24.0,0.,24.0,0.,24.0
1979-03-10 14:06:29.420 ,0,1,0.,24.0,0.,24.0,0.,24.0,0.,24.0
1979-03-10 14:06:53.420 ,0,1,0.,24.0,0.,24.0,0.,24.0,0.,24.0
1979-03-10 14:07:17.420 ,1,1,0.,24.0,0.,24.0,0.,24.0,0.,24.0
1979-03-10 14:07:41.420 ,2,1,0.,24.0,0.,24.0,0.,24.0,0.,24.0
1979-03-10 14:08:05.420 ,3,1,0.,24.0,0.,24.0,0.,24.0,0.,24.0
1979-03-10 14:08:29.420 ,4,1,0.,24.0,0.,24.0,0.,24.0,0.,24.0
1979-03-10 14:08:53.430 ,5,1,0.,24.0,0.,24.0,0.,24.0,0.,24.0
1979-03-10 14:09:17.430 ,6,1,0.,24.0,0.,24.0,0.,24.0,0.,24.0
1979-03-10 14:09:41.430 ,7,1,0.,24.0,0.,24.0,0.,24.0,0.,24.0
1979-03-10 14:10:05.430 ,7,1,0.,24.0,0.,24.0,0.,24.0,0.,24.0
1979-03-10 14:10:29.430 ,6,1,0.,24.0,0.,24.0,0.,24.0,0.,24.0
1979-03-10 14:10:53.430 ,5,1,0.,24.0,0.,24.0,0.,24.0,0.,24.0
1979-03-10 14:11:17.430 ,4,1,0.,24.0,0.,24.0,0.,24.0,0.,24.0
1979-03-10 14:11:41.430 ,3,1,0.,24.0,0.,24.0,0.,24.0,0.,24.0
1979-03-10 14:12:05.430 ,2,1,0.,24.0,0.,24.0,0.,24.0,0.,24.0
1979-03-10 14:12:29.430 ,1,1,0.,24.0,0.,24.0,0.,24.0,0.,24.0
1979-03-10 14:12:53.430 ,0,1,0.,24.0,0.,24.0,0.,24.0,0.,24.0
1979-03-10 14:13:17.430 ,0,1,0.,24.0,0.,24.0,0.,24.0,0.,24.0
1979-03-10 14:13:41.430 ,1,1,0.,24.0,0.,24.0,0.,24.0,0.,24.0
1979-03-10 14:14:05.430 ,2,1,0.,24.0,0.,24.0,0.,24.0,0.,24.0
1979-03-10 14:14:29.430 ,3,1,0.,24.0,0.,24.0,0.,24.0,0.,24.0
1979-03-10 14:14:53.430 ,4,1,0.,24.0,0.,24.0,0.,24.0,0.,24.0
1979-03-10 14:15:17.430 ,5,1,0.,24.0,0.,24.0,0.,24.0,0.,24.0
1979-03-10 14:15:41.430 ,6,1,0.,24.0,0.,24.0,0.,24.0,0.,24.0
1979-03-10 14:16:05.430 ,7,1,0.,24.0,0.,24.0,0.,24.0,0.,24.0
1979-03-10 14:16:29.430 ,7,1,0.,24.0,0.,24.0,0.,24.0,0.,24.0
1979-03-10 14:16:53.430 ,6,1,0.,24.0,0.,24.0,0.,24.0,0.,24.0
1979-03-10 14:17:17.430 ,5,1,0.,24.0,0.,24.0,0.,24.0,0.,24.0
1979-03-10 14:17:41.430 ,4,1,0.,24.0,0.,24.0,0.,24.0,0.,24.0
1979-03-10 14:18:05.430 ,3,1,0.,24.0,0.,24.0,0.,24.0,0.,24.0
1979-03-10 14:18:29.430 ,2,1,0.,24.0,0.,24.0,0.,24.0,0.,24.0
1979-03-10 14:18:53.430 ,1,1,0.,24.0,0.,24.0,0.,24.0,0.,24.0
1979-03-10 14:19:17.430 ,0,1,0.,24.0,0.,24.0,0.,24.0,0.,24.0
1979-03-10 14:19:41.430 ,0,1,0.,24.0,0.,24.0,0.,24.0,0.,24.0
1979-03-10 14:20:05.430 ,1,1,0.,24.0,0.,24.0,0.,24.0,0.,24.0
1979-03-10 14:20:29.430 ,2,1,0.,24.0,0.,24.0,0.,24.0,0.,24.0
1979-03-10 14:20:53.430 ,3,1,0.,24.0,0.,24.0,0.,24.0,0.,24.0
1979-03-10 14:21:17.430 ,4,1,0.,24.0,0.,24.0,0.,24.0,0.,24.0
1979-03-10 14:21:41.430 ,5,1,0.,24.0,0.,24.0,0.,24.0,0.,24.0
1979-03-10 14:22:05.430 ,6,1,0.,24.0,0.,24.0,0.,24.0,0.,24.0
1979-03-10 14:22:29.430 ,7,1,0.,24.0,0.,24.0,0.,24.0,0.,24.0
1979-03-10 14:22:53.430 ,7,1,0.,24.0,0.,24.0,0.,24.0,0.,24.0
1979-03-10 14:23:17.430 ,6,1,0.,24.0,0.,24.0,0.,24.0,0.,24.0
1979-03-10 14:23:41.430 ,5,1,0.,24.0,0.,24.0,0.,24.0,0.,24.0
1979-03-10 14:24:05.430 ,4,1,0.,24.0,0.,24.0,0.,24.0,0.,24.0
1979-03-10 14:24:29.430 ,3,1,0.,24.0,0.,24.0,0.,24.0,0.,24.0
1979-03-10 14:24:53.430 ,2,1,0.,24.0,0.,24.0,0.,24.0,0.,24.0
1979-03-10 14:25:17.430 ,1,0,,0,,0,,0,,0
1979-03-10 14:25:41.430 ,0,1,0.,24.0,0.,24.0,0.,24.0,0.,24.0
1979-03-10 14:26:05.430 ,0,1,0.,24.0,0.,24.0,0.,24.0,0.,24.0
1979-03-10 14:26:29.430 ,1,1,0.,24.0,0.,24.0,0.,24.0,0.,24.0
1979-03-10 14:26:53.430 ,2,1,0.,24.0,0.,24.0,0.,24.0,0.,24.0
1979-03-10 14:27:17.430 ,3,1,0.,24.0,0.,24.0,0.,24.0,0.,24.0
1979-03-10 14:27:41.430 ,4,1,0.,24.0,0.,24.0,0.,24.0,0.,24.0
1979-03-10 14:28:05.430 ,5,1,0.,24.0,0.,24.0,0.,24.0,0.,24.0
1979-03-10 14:28:29.430 ,6,1,0.,24.0,0.,24.0,0.,24.0,0.,24.0
1979-03-10 14:28:53.430 ,7,1,0.,24.0,0.,24.0,0.,24.0,0.,24.0
1979-03-10 14:29:17.430 ,7,1,0.,24.0,0.,24.0,0.,24.0,0.,24.0
1979-03-10 14:29:41.430 ,6,1,0.,24.0,0.,24.0,0.,24.0,0.,24.0
1979-03-10 14:30:05.430 ,5,1,0.,24.0,0.,24.0,0.,24.0,0.,24.0
1979-03-10 14:30:29.430 ,4,1,0.,24.0,0.,24.0,0.,24.0,0.,24.0
1979-03-10 14:30:53.430 ,3,1,0.,24.0,0.,24.0,0.,24.0,0.,24.0
1979-03-10 14:31:17.430 ,2,1,0.,24.0,0.,24.0,0.,24.0,0.,24.0
1979-03-10 14:31:41.430 ,1,1,0.,24.0,0.,24.0,0.,24.0,0.,24.0
1979-03-10 14:32:05.430 ,0,1,0.,24.0,0.,24.0,0.,24.0,0.,24.0
1979-03-10 14:32:29.430 ,0,1,0.,24.0,0.,24.0,0.,24.0,0.,24.0
1979-03-10 14:32:53.430 ,0,0,,0,,0,,0,,0
1979-03-10 14:33:17.430 ,0,1,0.,24.0,0.,24.0,0.,24.0,0.,24.0
1979-03-10 14:33:41.430 ,3,1,0.,24.0,0.,24.0,0.,24.0,0.,24.0
1979-03-10 14:34:05.430 ,4,1,0.,24.0,0.,24.0,0.,24.0,0.,24.0
1979-03-10 14:34:29.420 ,5,1,0.,24.0,0.,24.0,0.,24.0,0.,24.0
1979-03-10 14:34:53.420 ,6,1,0.,24.0,0.,24.0,0.,24.0,0.,24.0